Torna al catalogo

GOES 1 AKM

AttivoMEO
NORAD 20962·ROCKET BODY·🇺🇸 United States

Lanciato Oct 16, 1975 da Cape Canaveral Space Force Station

Loading…

Prossimi Passaggi (prossime 24 ore)

TLE

AggiornatoSource: Space-Track

Epoca: Sep 13, 2026, 19:59 UTC

1 20962U 75100F   26256.83325959 -.00000193  00000-0  00000-0 0  9991
2 20962   2.1002 248.7015 0266596  99.4460 262.9126  1.01931699137052

Traccia GOES 1 AKM in tempo reale con AllMySat

Download on the App Store